Temperature
13 13 13 13 12 12 12 12 12 12 11 11 11 11 11 11 11 11 11 11 10 10 10 10 11 10 10 10 10 10 10 10 10 10 10 10 10 10 10 10 10 10 10
13 13 12 12 12 12 12 11 11 11 11 11 11 11 11 11 11 10 10 10 10 10 10 10 10 10 10 10 10 10 10 10 10 10 10 10 10 10 10 10 10 10 10
12 12 12 12 12 11 11 11 11 11 11 11 11 10 10 10 10 10 10 10 10 10 9 9 9 9 10 10 9 9 9 9 9 9 9 9 9 9 9 9 9 9 9
12 12 12 11 11 11 11 11 10 10 10 10 10 10 10 10 10 10 9 9 9 9 9 9 9 9 9 9 9 9 9 8 8 9 9 9 9 9 9 9 9 9 9
11 11 11 11 11 11 10 10 10 10 10 10 10 10 10 9 9 9 9 9 9 9 9 9 9 9 9 8 8 8 8 8 8 8 8 8 8 8 8 8 8 8 8
11 11 11 10 10 10 10 10 10 10 9 9 9 9 9 9 9 9 9 8 8 8 8 8 8 8 8 8 8 8 8 8 8 7 8 8 8 8 8 8 8 8 8
11 10 10 10 10 10 10 10 9 9 9 9 9 9 9 9 9 9 9 8 8 8 8 8 8 8 7 7 8 8 8 8 7 7 7 7 7 7 7 7 8 8 8
10 10 10 10 9 9 9 9 9 9 9 8 8 8 8 8 8 8 8 8 7 7 7 7 7 7 7 7 7 7 7 7 7 7 7 7 7 7 7 7 7 7 7
10 9 9 9 9 9 8 8 8 8 8 8 8 7 7 7 7 7 7 7 7 7 7 7 6 6 7 7 7 7 6 7 7 7 7 7 7 7 7 7 6 6 7
9 9 9 8 8 8 8 8 8 7 7 7 7 7 7 7 7 7 7 6 6 6 6 6 6 6 6 6 6 6 6 6 6 6 6 6 6 6 6 6 6 6 6
8 8 8 8 8 8 8 7 7 7 7 6 6 6 6 6 6 6 6 6 6 6 6 6 6 6 6 6 6 6 6 6 6 6 6 6 6 6 6 6 6 6 6
8 8 8 7 7 7 7 7 7 6 6 6 5 6 6 6 6 6 6 6 6 5 5 5 5 5 5 5 5 5 5 5 5 5 5 5 5 5 5 6 6 6 6
7 7 7 7 7 7 6 6 6 6 5 5 5 5 5 5 5 5 5 5 5 5 5 5 5 5 5 5 5 5 5 5 5 5 5 5 5 5 5 5 5 5 5
7 7 6 6 6 6 6 6 5 5 5 4 4 4 4 4 5 5 5 5 5 4 4 5 4 4 4 4 4 4 4 4 4 4 4 4 4 4 4 4 5 5 5
6 6 6 6 6 6 5 5 5 5 5 4 4 4 4 4 4 4 4 4 4 4 4 4 4 4 4 4 4 4 4 4 4 4 4 4 4 4 4 4 4 4 4
6 5 5 5 5 5 5 5 4 4 4 4 4 4 4 4 4 4 4 4 4 4 4 3 3 3 3 3 3 3 3 3 3 3 4 4 3 3 3 4 4 4 4
5 5 5 5 4 4 4 4 4 4 4 4 4 4 4 4 4 3 3 3 3 3 3 3 3 3 3 3 3 3 3 3 3 3 3 3 3 3 3 3 3 3 3
5 4 4 4 4 4 3 3 3 3 3 3 3 3 3 3 3 3 3 3 3 3 2 2 2 3 3 3 3 3 3 3 3 3 3 3 3 3 3 3 3 3 3
4 4 4 3 3 3 3 3 3 3 3 3 3 3 3 3 3 2 2 2 2 2 2 2 2 2 2 2 2 2 2 2 2 2 2 2 3 3 3 3 3 2 2
4 4 3 3 3 3 3 2 2 2 2 2 2 2 2 2 2 2 2 1 1 1 1 1 1 1 1 1 1 1 2 2 2 2 2 2 2 2 2 2 2 2 2
3 3 3 3 2 2 2 2 2 2 2 2 2 2 2 1 1 1 1 1 1 1 1 1 1 1 1 1 1 1 1 1 1 2 2 2 2 2 2 2 2 2 2
3 3 2 2 2 2 2 2 2 2 1 1 1 1 1 1 1 1 1 1 1 0 0 0 0 1 1 1 1 0 1 1 1 1 1 1 1 1 2 2 2 1 2
2 2 2 2 1 1 1 1 1 1 1 1 1 1 1 0 0 0 0 0 0 0 0 0 0 0 0 0 0 0 0 0 0 1 1 1 1 1 1 1 1 1 1
2 2 1 1 1 1 1 1 1 1 1 0 0 0 -0 -0 -0 -0 -0 -0 -0 -0 -0 -0 -0 -0 -0 0 0 0 0 0 0 0 0 0 0 1 1 1 1 1 1
1 1 1 1 1 1 1 0 0 0 0 0 -0 -0 -1 -1 -1 -1 -1 -1 -1 -1 -1 -1 -1 -0 -0 -0 -0 -0 0 0 0 0 0 0 0 0 0 0 1 1 1
1 1 1 0 0 0 0 -0 -0 -0 -0 -0 -0 -1 -1 -1 -1 -1 -1 -1 -1 -1 -1 -1 -1 -1 -1 -0 -0 -0 0 0 0 0 0 -0 0 0 0 0 0 0 0
Wind_Speed
4 3 3 3 3 3 3 3 3 3 3 3 4 4 4 4 4 4 4 4 5 5 4 5 5 4 4 3 3 4 4 4 5 5 4 3 3 3 2 2 2 2 1
4 4 3 2 2 3 3 3 3 3 3 3 4 4 4 4 4 4 5 5 5 5 5 5 5 3 4 3 3 4 4 4 5 5 4 3 3 3 2 2 2 2 2
3 3 3 3 3 3 2 2 2 3 3 3 3 4 4 4 4 4 4 5 5 5 5 5 5 5 4 4 4 4 3 4 4 4 4 3 3 3 2 2 3 2 2
3 3 2 2 2 2 1 1 2 2 3 3 3 4 4 4 4 4 4 5 6 5 5 5 5 5 5 5 4 4 4 4 4 4 4 4 3 3 3 3 3 3 3
3 3 2 1 1 1 1 1 1 2 3 3 4 4 4 4 4 5 5 5 6 5 5 5 5 4 4 4 4 4 4 4 4 4 4 4 3 3 3 3 3 4 3
3 2 1 1 1 1 1 1 2 2 3 3 4 4 5 3 3 5 6 5 6 6 5 5 4 5 4 4 4 4 5 5 5 5 5 5 5 5 4 5 5 4 4
2 2 1 1 1 1 1 1 2 3 3 3 4 4 5 3 3 4 5 6 6 6 6 5 4 4 5 4 4 4 5 5 6 6 6 6 6 6 5 5 5 6 6
2 1 1 1 1 1 1 2 2 3 3 3 4 4 4 3 3 4 5 6 6 6 6 5 5 5 4 4 5 5 5 5 6 6 6 7 7 6 6 6 6 6 6
2 2 1 1 1 1 2 2 2 3 3 3 4 4 4 4 3 4 6 5 5 6 5 5 5 5 2 4 5 5 5 5 4 5 6 6 6 6 7 5 6 5 5
2 2 1 1 2 2 2 2 3 3 3 3 4 4 4 4 2 4 6 4 5 5 4 4 4 4 4 4 5 5 6 6 5 5 6 5 5 5 6 7 6 6 6
2 1 1 1 1 1 1 2 2 2 3 4 4 4 4 4 3 4 6 5 5 5 5 4 3 2 4 5 6 6 6 6 6 6 5 4 4 4 4 4 4 5 6
2 1 1 1 1 1 1 1 2 2 3 3 4 4 4 4 4 4 5 6 7 6 5 4 3 2 4 6 6 5 6 6 5 4 4 4 4 4 4 4 4 4 4
2 2 1 1 1 1 1 2 2 2 3 3 3 4 4 4 3 4 5 6 7 6 5 4 4 4 4 5 5 6 6 5 4 4 5 5 4 4 4 4 4 4 4
3 2 1 1 1 1 2 2 2 2 3 3 3 4 4 4 4 3 4 4 5 5 5 3 4 5 4 4 4 4 4 4 5 5 5 4 4 4 4 4 4 4 4
2 2 2 2 2 2 2 2 3 3 3 4 4 4 5 5 5 7 6 5 5 5 5 4 4 3 3 4 4 4 4 4 4 4 4 4 4 4 4 4 4 4 5
3 2 2 2 2 2 2 2 2 3 3 4 5 5 5 5 6 6 6 6 6 5 5 4 4 4 4 4 4 4 4 4 4 4 5 5 5 5 4 4 5 5 5
3 3 2 2 2 2 2 2 3 3 2 3 4 4 5 5 5 5 5 5 5 4 4 4 4 4 4 5 5 5 4 4 4 5 5 5 5 5 5 5 5 5 5
3 2 2 2 2 3 3 3 3 3 3 3 3 3 4 5 5 4 4 4 3 3 3 4 4 4 5 5 5 5 4 4 4 5 5 5 5 5 5 5 5 5 5
3 2 2 2 2 2 2 3 3 3 3 3 3 3 3 4 4 3 3 3 3 4 4 4 4 4 4 5 5 4 4 4 5 5 5 5 5 5 5 5 5 5 6
3 2 2 2 2 2 2 3 3 3 3 3 3 3 3 3 3 3 3 3 3 4 4 5 4 4 4 4 4 4 4 4 5 5 5 5 5 5 5 6 5 5 5
3 3 3 3 3 2 2 3 3 3 3 3 4 3 3 3 3 4 4 4 4 4 4 5 5 4 4 4 4 4 5 5 5 5 4 4 5 5 5 5 4 4 4
3 3 3 3 3 2 2 3 3 3 3 3 3 3 3 3 3 3 3 4 4 4 4 4 4 4 4 4 4 4 5 5 5 5 4 4 5 5 5 4 4 4 4
3 2 3 3 2 2 2 2 2 2 2 3 3 3 3 3 3 3 4 4 4 4 4 4 4 4 4 4 4 4 5 5 5 5 5 4 4 5 4 4 5 5 5
2 3 2 2 2 2 2 2 2 2 2 2 2 2 3 3 4 4 4 4 4 4 4 4 4 6 7 5 5 5 5 6 6 6 6 5 5 5 4 5 5 6 5
3 2 2 2 2 2 2 2 2 2 2 2 2 3 3 3 3 4 4 4 5 5 6 6 5 5 7 7 6 6 7 7 7 7 6 5 5 5 5 5 4 5 5
2 2 2 2 2 2 2 2 2 2 2 2 2 3 3 3 3 4 4 4 4 5 5 5 6 7 8 7 7 8 7 7 7 7 6 4 4 4 4 4 4 4 5
Wind_Direction
199 203 212 217 219 219 235 258 267 267 275 279 280 279 273 268 269 259 261 266 267 271 272 275 275 274 270 267 263 257 256 261 264 277 284 284 275 277 280 291 305 282 223
194 197 208 210 220 230 243 260 269 271 276 283 282 277 279 275 276 277 265 263 266 273 277 278 279 275 270 273 267 257 255 259 260 271 279 282 280 285 280 282 287 289 294
187 193 201 209 226 240 252 264 275 281 279 282 282 277 281 280 275 274 274 267 266 269 274 276 278 276 271 272 269 266 264 263 259 256 272 282 273 272 271 265 272 277 281
184 187 194 211 226 238 250 264 291 298 291 286 285 285 286 285 279 277 277 275 268 268 270 271 272 275 277 278 271 269 266 265 262 254 257 264 264 267 263 265 275 270 268
187 187 199 208 218 245 260 283 298 302 297 295 292 291 289 285 291 291 281 278 270 269 270 271 275 281 294 286 281 275 268 266 267 264 263 265 263 258 265 264 264 275 271
189 182 172 209 230 263 304 303 299 296 300 301 298 298 293 292 321 307 291 278 273 267 269 271 268 259 262 268 273 278 275 265 266 265 266 263 272 274 273 264 260 269 272
184 182 174 206 241 272 295 306 299 298 301 302 303 302 300 303 303 295 290 282 271 266 267 267 268 268 263 263 256 249 256 252 254 260 261 264 271 271 272 273 271 272 273
176 168 171 218 255 294 296 299 305 307 302 301 304 302 302 312 324 308 297 272 273 268 265 264 264 267 269 278 271 266 265 262 258 259 264 269 273 276 268 264 269 271 274
180 184 201 226 245 272 286 299 308 308 305 304 306 303 300 304 314 308 304 282 274 273 272 272 273 272 283 278 264 263 266 267 255 252 272 277 277 267 259 251 251 255 264
191 204 216 231 241 264 281 299 312 300 295 302 302 303 300 300 323 308 304 287 281 281 278 277 278 281 291 269 260 263 265 270 271 269 267 266 263 256 241 245 245 246 255
193 205 211 220 235 253 280 298 305 311 306 300 303 302 301 308 309 307 305 295 290 284 279 280 287 289 286 272 271 267 273 280 270 267 267 268 268 267 263 257 256 251 250
184 194 206 213 235 235 282 306 309 309 305 307 306 310 310 310 315 314 306 301 303 283 281 283 293 297 285 273 264 268 272 270 264 263 261 263 261 262 263 262 254 252 258
181 197 213 227 248 251 259 277 287 290 294 299 304 308 312 315 316 310 299 298 297 288 287 302 299 281 274 265 252 258 257 257 259 260 259 262 262 260 261 253 247 246 254
194 206 223 243 263 268 267 264 269 275 283 291 298 302 305 306 310 319 316 302 287 284 283 281 265 264 260 267 262 253 257 261 263 260 263 267 264 256 249 246 244 242 250
198 217 236 244 252 268 279 278 270 274 278 283 284 286 291 293 317 330 315 304 301 300 298 283 278 280 280 275 271 269 265 261 260 263 262 259 257 254 253 251 247 247 248
208 227 241 248 255 268 285 297 295 278 291 292 301 302 296 305 323 317 314 317 316 306 287 271 274 280 284 282 276 272 268 264 262 262 259 257 256 254 252 252 249 244 244
216 225 238 243 252 263 269 276 293 302 288 276 288 309 318 325 321 313 308 307 305 293 280 283 286 286 283 281 278 274 272 272 269 263 259 259 259 258 253 249 247 244 243
218 220 231 240 247 254 261 267 271 285 299 307 298 301 317 322 325 320 310 304 308 296 290 292 292 291 292 292 287 284 282 280 275 270 266 262 259 257 256 254 249 247 244
217 222 232 242 246 252 262 267 269 273 281 294 312 320 322 313 312 318 299 299 305 303 299 297 298 296 293 292 293 291 289 285 283 279 275 270 265 260 256 252 248 244 245
216 211 230 239 245 249 254 261 269 275 280 287 299 312 320 317 313 316 309 305 304 304 306 304 302 301 299 295 295 295 292 291 288 282 280 275 269 264 263 259 251 244 243
213 208 209 228 236 243 252 260 264 268 276 285 294 313 323 296 294 299 303 307 309 306 304 303 303 303 300 297 291 289 291 290 287 285 285 282 276 267 263 261 257 250 246
212 218 225 231 234 239 251 257 261 267 276 287 299 306 310 295 299 301 304 310 311 308 305 303 305 304 300 296 292 290 288 288 287 286 285 282 277 271 264 256 250 247 243
210 215 221 229 232 234 242 252 259 265 275 285 300 309 307 305 308 309 311 315 314 313 309 304 307 311 306 299 294 289 290 288 288 284 283 281 280 276 265 256 252 250 242
202 209 213 219 230 238 247 256 264 269 278 287 295 302 307 310 311 313 315 315 315 313 311 307 306 312 313 309 304 299 300 303 300 288 280 281 280 279 274 261 252 245 241
193 200 209 217 227 240 250 261 271 277 282 289 294 295 298 303 306 310 314 314 313 313 315 314 312 312 313 311 313 313 318 317 311 304 288 279 280 280 280 274 260 249 243
198 201 215 222 229 241 248 258 268 277 281 286 291 295 299 300 302 306 311 312 314 315 315 314 315 317 316 313 312 316 316 312 308 304 295 282 280 279 280 275 270 256 248
Height
1529 1530 1531 1531 1532 1532 1531 1531 1531 1530 1529 1529 1528 1527 1527 1526 1526 1525 1524 1523 1523 1522 1521 1520 1519 1518 1518 1517 1516 1516 1515 1515 1514 1512 1512 1512 1512 1511 1511 1510 1510 1509 1509
1527 1527 1528 1529 1529 1529 1529 1528 1528 1527 1526 1526 1525 1524 1524 1523 1522 1522 1521 1520 1520 1519 1518 1517 1516 1515 1514 1514 1513 1513 1512 1512 1511 1510 1509 1509 1509 1509 1508 1508 1507 1507 1507
1524 1525 1526 1526 1526 1526 1526 1525 1524 1524 1523 1523 1522 1521 1521 1520 1519 1519 1518 1517 1516 1515 1515 1514 1513 1512 1512 1511 1510 1509 1509 1508 1508 1507 1506 1506 1506 1506 1505 1505 1505 1504 1504
1521 1522 1523 1523 1523 1523 1523 1522 1521 1521 1520 1520 1519 1518 1517 1517 1516 1515 1514 1514 1513 1512 1511 1510 1510 1509 1508 1508 1507 1506 1506 1505 1505 1504 1504 1503 1503 1503 1503 1502 1502 1502 1501
1519 1520 1520 1520 1520 1520 1520 1519 1519 1518 1517 1516 1516 1515 1514 1513 1512 1511 1511 1510 1509 1509 1508 1507 1506 1505 1504 1504 1503 1503 1503 1502 1502 1502 1501 1501 1500 1500 1500 1499 1499 1499 1498
1516 1517 1517 1518 1517 1517 1517 1516 1516 1515 1514 1513 1512 1511 1510 1509 1508 1507 1507 1506 1506 1505 1504 1503 1502 1501 1500 1500 1499 1499 1499 1499 1499 1498 1498 1497 1497 1497 1497 1497 1496 1496 1495
1513 1514 1515 1515 1515 1514 1514 1513 1513 1512 1511 1510 1509 1508 1507 1505 1504 1503 1503 1502 1502 1501 1500 1499 1498 1497 1496 1496 1495 1495 1495 1495 1495 1495 1494 1494 1494 1494 1493 1493 1493 1492 1492
1511 1511 1512 1512 1512 1511 1511 1510 1510 1509 1508 1507 1505 1504 1503 1502 1501 1500 1498 1498 1498 1497 1496 1495 1495 1494 1493 1492 1491 1491 1491 1491 1491 1491 1491 1490 1490 1490 1489 1489 1489 1488 1488
1508 1508 1509 1509 1509 1508 1508 1507 1506 1505 1504 1503 1502 1501 1500 1499 1497 1496 1495 1495 1494 1493 1492 1492 1491 1490 1488 1488 1488 1487 1487 1487 1487 1486 1486 1485 1485 1485 1485 1485 1484 1485 1484
1505 1505 1506 1506 1506 1505 1505 1504 1503 1502 1501 1500 1499 1498 1497 1495 1494 1493 1492 1491 1491 1490 1489 1488 1487 1486 1485 1484 1484 1484 1483 1483 1482 1482 1481 1480 1480 1480 1480 1480 1480 1480 1480
1502 1503 1503 1503 1503 1502 1502 1501 1500 1499 1498 1497 1496 1494 1493 1492 1490 1489 1488 1488 1487 1486 1485 1484 1483 1482 1481 1480 1480 1480 1479 1479 1478 1477 1477 1476 1476 1475 1475 1475 1476 1476 1476
1499 1500 1500 1500 1500 1499 1499 1498 1497 1496 1495 1494 1492 1491 1490 1489 1487 1486 1485 1484 1483 1483 1481 1480 1479 1478 1477 1476 1476 1475 1475 1474 1474 1473 1473 1472 1472 1471 1471 1471 1471 1470 1471
1496 1497 1497 1497 1497 1496 1496 1495 1494 1493 1492 1491 1490 1488 1487 1486 1484 1483 1482 1481 1480 1479 1478 1476 1475 1474 1473 1472 1472 1471 1471 1470 1470 1469 1469 1468 1467 1467 1466 1466 1466 1466 1466
1493 1493 1494 1494 1493 1493 1492 1492 1491 1490 1489 1488 1487 1486 1484 1483 1482 1480 1478 1477 1476 1475 1474 1473 1472 1471 1470 1469 1468 1468 1467 1466 1466 1465 1464 1464 1463 1463 1462 1462 1462 1461 1462
1490 1490 1490 1490 1490 1489 1489 1488 1487 1487 1486 1485 1484 1483 1482 1480 1479 1477 1475 1474 1473 1472 1471 1470 1469 1468 1467 1466 1465 1464 1464 1463 1462 1461 1461 1460 1459 1459 1458 1458 1458 1458 1458
1487 1487 1487 1487 1486 1486 1485 1485 1484 1484 1483 1482 1481 1480 1478 1477 1475 1474 1472 1471 1470 1469 1468 1467 1466 1465 1464 1463 1462 1461 1460 1459 1458 1458 1457 1456 1455 1455 1454 1454 1454 1454 1453
1483 1483 1483 1483 1483 1482 1482 1481 1480 1480 1480 1479 1478 1477 1475 1474 1472 1471 1469 1468 1467 1466 1465 1464 1463 1462 1461 1460 1459 1458 1456 1455 1455 1454 1453 1452 1452 1451 1450 1450 1450 1449 1450
1480 1480 1480 1479 1479 1479 1479 1478 1478 1477 1476 1475 1474 1473 1472 1470 1469 1468 1466 1465 1464 1463 1462 1461 1459 1459 1458 1456 1455 1454 1453 1452 1451 1450 1449 1448 1448 1447 1447 1446 1446 1446 1445
1476 1477 1477 1476 1476 1476 1476 1475 1475 1475 1474 1473 1472 1470 1469 1467 1466 1465 1464 1463 1461 1460 1459 1458 1457 1455 1454 1453 1452 1450 1449 1448 1447 1446 1445 1445 1444 1443 1443 1442 1442 1442 1442
1473 1473 1473 1473 1473 1473 1473 1473 1472 1472 1471 1470 1469 1468 1466 1465 1463 1462 1461 1460 1459 1458 1457 1455 1454 1452 1451 1449 1448 1447 1445 1444 1443 1442 1442 1441 1440 1440 1439 1439 1438 1438 1438
1469 1469 1470 1470 1470 1470 1470 1470 1470 1469 1469 1468 1467 1465 1464 1463 1461 1460 1459 1457 1456 1455 1454 1452 1451 1449 1447 1446 1445 1443 1442 1441 1440 1439 1438 1437 1436 1435 1435 1435 1434 1434 1434
1466 1466 1467 1467 1467 1467 1467 1467 1467 1467 1466 1465 1464 1463 1461 1460 1459 1457 1456 1455 1453 1452 1451 1449 1447 1446 1444 1443 1441 1440 1438 1437 1436 1435 1434 1433 1433 1432 1431 1430 1430 1431 1431
1463 1463 1464 1464 1464 1464 1464 1464 1464 1464 1463 1462 1461 1460 1459 1458 1457 1455 1454 1452 1451 1449 1448 1446 1444 1443 1441 1440 1438 1437 1435 1434 1433 1432 1431 1429 1429 1428 1427 1427 1427 1427 1427
1460 1460 1461 1461 1461 1461 1462 1461 1461 1461 1460 1460 1459 1458 1457 1455 1454 1453 1451 1450 1448 1446 1445 1443 1442 1440 1438 1437 1436 1434 1432 1431 1430 1428 1427 1426 1426 1425 1424 1424 1423 1423 1423
1457 1458 1458 1458 1459 1459 1459 1459 1459 1458 1458 1457 1456 1455 1454 1453 1452 1450 1449 1447 1446 1444 1442 1441 1439 1437 1436 1434 1433 1431 1429 1428 1427 1425 1424 1423 1422 1421 1421 1420 1420 1420 1419
1454 1455 1455 1456 1456 1456 1456 1456 1456 1456 1455 1454 1453 1452 1451 1450 1449 1447 1446 1444 1443 1441 1440 1438 1436 1434 1433 1431 1430 1428 1427 1425 1424 1423 1422 1421 1419 1419 1418 1417 1417 1416 1416